Hourly Data Report for June 16, 2020

All times are specified in Local Standard Time (LST). Add 1 hour to adjust for Daylight Saving Time where and when it is observed.

OTTAWA INTL A
ONTARIO
Current Station Operator: NAVCAN

45°19'00.000" N
75°40'00.000" W
114.90 m
6106001
71628
YOW

Download Data

Hourly Data (June 2020)
Hourly Data Report for June 16, 2020
TIME Temp Definition
°C
Dew Point Definition
°C
Rel Hum Definition
%
Wind Dir Definition
10's deg

Wind Spd Definition
km/h
Visibility Definition
km
Stn Press Definition
kPa
Hmdx Definition


Wind Chill Definition


Weather Definition


00:00 11.2 5.4 68 20 5 24.1 101.56     LegendNANA
01:00 12.7 6.0 64 36 2 24.1 101.53     Mainly Clear
02:00 10.7 5.9 72 19 4 24.1 101.53     LegendNANA
03:00 9.1 4.9 75 18 4 24.1 101.51     LegendNANA
04:00 8.7 5.5 80 22 4 24.1 101.55     Mainly Clear
05:00 9.9 7.2 83 28 4 24.1 101.60     LegendNANA
06:00 13.6 9.3 75 36 2 24.1 101.63     LegendNANA
07:00 17.1 10.4 64 36 3 24.1 101.64     Clear
08:00 20.1 8.7 48 33 3 24.1 101.66     LegendNANA
09:00 22.2 8.0 40 34 4 24.1 101.64     LegendNANA
10:00 23.2 6.8 34 20 4 24.1 101.60     Clear
11:00 24.1 6.1 31 21 8 24.1 101.56     LegendNANA
12:00 24.7 6.1 30 18 4 24.1 101.49     LegendNANA
13:00 26.1 6.5 28 17 18 24.1 101.42 26   Mainly Clear
14:00 26.5 9.5 34 16 9 24.1 101.35 28   LegendNANA
15:00 27.3 7.5 28 24 7 24.1 101.27 28   LegendNANA
16:00 27.1 6.8 27 19 12 24.1 101.21 27   Clear
17:00 27.1 6.1 26 24 9 24.1 101.16 27   LegendNANA
18:00 26.0 8.2 32 24 9 24.1 101.12 26   LegendNANA
19:00 23.8 8.0 36 24 8 24.1 101.09     Mainly Clear
20:00 22.4 7.3 37 20 9 24.1 101.05     LegendNANA
21:00 21.0 7.8 42 19 8 24.1 101.11     LegendNANA
22:00 19.1 8.6 50 21 10 24.1 101.12     Clear
23:00 17.9 8.9 55 23 11 24.1 101.11     LegendNANA

Notes on Data Quality.

Legend

  • E = Estimated
  • M = Missing
  • NA = Not Available*
  • [empty] = Indicates an unobserved value
Date modified: